RH
18 18 18 18 18 17 16 15 15 14 13 13 13 15 17 21 23 24 21 18 15 16 22 26 25 28 30 29 28 28 27 23 19 19 19 19 19 21 21 22 23 22 22 22 22 23 25 27 28 29 29 28 30 32 31 33 34 36 40 41 38 39 41 41 42 39 35 32 29 26 26 27 29 32 32 33 40 43 49 54 50 51 56 53 60 64 43
18 18 19 19 18 19 18 17 16 15 14 14 15 17 18 18 20 23 23 18 14 17 23 25 24 22 22 23 23 22 20 17 16 19 21 20 20 21 21 21 22 21 21 21 22 24 28 28 27 28 29 28 29 32 31 32 32 34 39 40 38 42 45 43 43 44 41 35 30 28 31 33 33 33 32 32 34 37 41 44 44 48 48 45 55 61 41
20 20 20 20 19 19 19 17 17 16 16 15 15 18 20 19 19 23 23 19 17 19 22 24 25 25 23 21 20 18 16 15 16 20 22 20 20 22 21 20 19 19 21 23 24 26 29 30 29 28 28 26 26 30 32 33 33 34 35 36 36 41 41 40 43 49 50 43 36 34 38 38 35 33 32 31 31 33 38 41 44 48 47 44 53 56 40
19 19 20 20 19 19 18 17 17 16 16 15 15 20 22 20 21 22 21 18 18 22 24 24 26 28 26 23 20 18 16 16 16 20 23 22 22 23 23 22 22 24 27 29 31 30 30 32 32 31 32 30 29 30 31 35 39 39 37 35 37 41 39 38 41 44 43 41 37 34 35 36 34 31 31 30 32 34 37 42 46 48 47 45 45 44 40
17 17 17 17 17 17 16 16 16 16 16 15 16 19 20 20 22 22 20 20 21 23 24 23 24 26 26 24 20 18 19 21 23 24 25 25 25 27 28 27 29 34 35 36 36 35 33 34 34 35 35 34 33 32 32 38 44 45 43 40 41 44 43 41 41 38 35 35 35 32 32 32 30 28 27 25 30 35 37 39 42 41 43 43 38 37 39
17 16 16 16 16 16 15 16 16 15 16 16 16 19 21 21 22 21 21 23 24 22 21 19 20 21 23 24 24 23 26 28 29 29 28 29 34 40 42 40 38 40 40 41 42 41 39 40 41 41 40 38 36 35 35 39 44 45 44 44 46 48 48 46 43 37 33 34 34 34 33 32 29 28 26 24 28 34 34 34 36 36 40 40 35 34 36
18 18 18 18 17 18 17 17 17 16 17 18 17 19 22 23 24 23 22 23 23 22 22 21 23 27 30 33 33 34 35 36 35 35 36 39 43 48 51 51 46 42 41 44 49 50 50 51 51 47 44 44 42 41 39 39 42 43 43 44 46 48 49 47 44 38 34 35 38 37 36 35 32 29 27 29 34 35 33 32 32 34 37 36 33 34 33
21 20 20 20 19 19 18 18 18 17 17 18 19 21 23 25 28 28 27 27 26 26 26 27 31 36 38 39 39 38 41 44 44 42 42 44 45 46 48 49 45 41 39 42 48 52 54 56 54 48 47 48 45 44 43 40 41 42 43 44 47 48 48 45 45 44 39 39 41 39 38 38 34 30 31 34 36 34 31 31 31 31 32 33 36 36 30
22 21 21 21 20 19 18 18 18 17 17 18 22 27 26 26 29 31 33 34 33 31 31 30 35 40 40 41 44 44 46 49 47 44 43 43 45 45 45 46 45 41 40 42 46 48 50 51 48 46 47 48 46 46 45 43 43 43 43 44 46 49 48 44 47 50 44 43 45 41 40 40 33 30 33 34 34 33 31 31 30 30 30 30 32 33 27
24 23 23 22 22 21 20 19 19 20 20 21 26 32 32 28 28 31 35 39 38 35 34 35 40 46 46 46 48 48 47 49 48 48 48 46 47 47 46 47 48 46 46 48 46 44 44 44 43 43 44 43 43 45 45 44 46 45 44 43 43 46 47 45 51 52 45 47 52 47 45 44 37 34 36 34 34 35 33 33 33 32 33 33 34 34 30
28 27 27 26 26 25 24 23 23 23 23 26 31 39 40 36 34 36 38 43 44 41 39 42 47 50 50 49 51 50 47 48 49 51 52 50 48 49 49 49 51 51 51 50 47 45 43 43 44 44 43 41 40 40 41 43 45 46 46 45 42 44 46 47 51 52 47 49 54 54 53 48 37 33 35 34 35 36 34 34 35 36 38 40 40 38 37
33 33 32 32 32 31 29 28 28 26 26 31 36 42 45 43 42 45 47 50 52 48 45 47 50 52 53 52 54 54 51 49 50 51 52 49 48 49 49 49 52 52 49 47 46 46 45 44 45 43 41 40 38 36 36 38 42 44 45 46 44 44 47 46 46 49 48 47 56 64 57 41 32 33 37 35 36 38 38 36 36 40 44 45 43 41 41
38 37 37 36 35 35 33 31 32 31 31 35 40 45 52 52 49 51 54 55 56 52 49 50 50 50 54 54 54 55 53 49 50 51 52 50 51 53 54 53 54 53 51 49 47 46 47 47 47 46 43 41 39 37 34 34 36 38 40 42 41 44 49 48 45 47 46 45 55 62 50 33 32 40 42 40 40 43 44 42 42 46 48 47 46 45 45
39 38 38 38 38 38 37 37 38 37 37 41 46 51 59 60 55 55 58 57 58 54 51 52 50 46 48 50 50 50 50 49 49 51 50 50 51 54 55 54 54 54 53 52 51 52 53 53 54 54 51 47 46 43 38 36 36 37 40 42 43 46 52 53 52 51 50 50 54 56 49 40 40 46 50 49 51 55 55 52 51 50 49 48 49 49 48
42 42 42 44 45 45 45 45 46 45 43 45 49 55 60 61 56 55 55 54 55 53 49 50 49 45 44 45 46 47 47 47 47 47 47 47 48 50 50 48 48 50 50 50 52 54 56 56 59 62 59 56 54 48 41 38 37 39 43 45 47 49 50 54 58 56 54 58 60 61 60 53 47 54 61 57 54 58 58 56 54 52 51 50 51 50 48
48 49 50 52 53 53 53 51 49 48 44 42 44 48 53 56 52 48 48 49 51 52 50 50 49 45 43 43 44 46 48 48 48 48 49 50 49 49 48 45 46 47 47 48 50 53 56 58 59 62 59 55 54 50 46 43 40 39 42 44 46 49 51 56 61 60 59 63 64 65 63 54 49 59 65 58 54 56 58 59 57 54 53 52 51 51 51
53 53 53 53 53 52 51 48 44 41 37 34 35 39 46 53 51 46 47 50 51 50 48 46 45 44 44 45 45 46 47 48 51 54 54 52 49 45 43 45 49 50 49 49 51 54 58 60 60 61 59 53 52 54 52 49 47 45 45 44 44 48 55 62 66 66 67 72 73 68 62 57 59 65 67 64 60 58 63 70 68 60 56 54 51 51 52
47 47 45 45 45 44 44 42 39 39 36 33 33 39 48 54 52 49 51 52 51 50 47 44 44 45 46 47 46 45 45 46 49 52 52 50 48 46 45 47 51 54 54 57 59 60 62 63 61 62 60 55 54 57 54 53 53 52 50 49 47 46 51 59 66 67 68 76 81 76 66 66 71 71 69 67 64 65 74 80 74 62 57 54 51 51 52
39 39 40 40 40 42 43 43 43 44 43 39 36 39 47 52 51 51 53 52 52 52 46 41 43 46 45 46 45 44 44 44 45 48 52 54 52 52 53 53 52 54 56 58 62 63 64 64 61 60 62 62 60 60 58 57 57 56 54 54 55 53 52 54 59 63 65 70 73 69 64 68 74 72 68 68 72 77 80 75 67 60 57 55 54 52 52
38 40 42 43 42 44 47 48 48 48 48 45 41 39 46 52 52 53 54 53 54 54 44 40 44 45 42 43 45 44 44 46 44 45 51 57 54 53 58 59 56 57 59 60 63 65 66 67 65 64 69 70 66 63 63 59 58 58 58 58 58 58 57 57 56 58 62 64 63 62 63 64 65 64 65 69 73 74 70 63 59 57 56 55 54 51 50
38 41 43 44 44 45 47 48 49 48 49 49 45 41 46 51 53 54 55 54 56 55 45 39 41 42 39 38 40 41 44 46 45 44 46 49 50 54 61 61 57 58 59 60 62 64 64 66 67 67 69 69 63 60 61 61 58 54 55 58 57 55 58 63 62 61 66 67 63 62 64 62 59 61 68 72 69 65 62 60 58 55 54 54 53 50 49
40 42 44 45 45 45 46 47 48 48 50 50 48 46 48 49 49 53 54 51 51 52 45 38 38 39 38 37 40 43 46 48 47 45 46 46 45 49 53 55 56 57 57 58 61 62 62 63 63 63 64 64 61 57 58 61 61 54 51 54 57 57 61 66 67 66 69 68 63 61 62 63 64 66 69 71 70 67 64 62 59 56 55 54 52 48 46
43 45 45 46 48 48 48 50 50 51 51 51 51 50 48 45 45 49 49 48 49 49 44 40 40 40 40 44 49 51 51 53 52 50 50 50 49 49 48 49 53 55 55 60 63 62 63 63 61 60 61 61 58 56 55 57 56 52 50 50 50 54 61 64 65 65 64 59 56 58 61 62 64 65 66 69 71 68 62 59 60 58 56 56 54 50 47
46 47 46 46 48 51 52 52 52 53 53 51 51 51 46 43 45 48 47 48 51 50 46 42 42 43 46 51 55 55 55 57 57 54 52 52 53 53 50 48 50 50 50 55 59 59 60 59 57 58 59 55 52 53 55 57 52 49 53 53 49 52 59 60 59 62 63 57 51 52 57 58 57 58 60 61 62 58 54 55 56 56 59 63 61 56 53
46 46 44 43 46 50 53 53 52 52 52 50 49 48 44 43 46 47 48 49 50 53 52 48 44 46 50 49 51 53 55 55 55 54 54 54 53 53 50 47 47 46 45 48 51 54 57 57 56 56 56 53 52 54 59 63 58 56 60 61 58 59 63 62 60 61 62 58 51 48 52 53 53 56 58 58 59 57 54 55 55 59 67 71 67 62 61
43 41 40 39 41 46 51 52 52 49 46 45 45 44 44 45 46 46 47 49 49 51 54 53 48 47 46 44 45 50 53 53 53 52 51 50 50 50 48 45 44 44 44 45 46 48 52 55 57 60 60 58 59 61 63 63 61 60 62 60 59 62 63 61 62 64 62 58 54 52 53 49 49 55 60 61 61 57 53 55 60 66 71 68 63 67 69
41 40 40 39 39 41 43 46 46 41 37 37 37 38 41 45 46 46 48 50 50 50 51 53 50 46 42 42 44 45 46 46 47 46 45 44 43 43 43 43 43 42 42 44 46 48 51 55 60 63 66 66 66 66 66 65 65 65 62 57 60 67 66 62 67 73 68 61 58 62 64 55 48 51 57 62 65 61 55 57 63 66 64 59 61 71 74
40 40 39 38 38 38 37 38 37 34 33 33 32 35 42 45 46 47 49 48 49 50 50 51 51 48 46 45 44 41 38 37 38 41 42 43 41 39 40 43 44 44 45 50 55 58 60 62 65 67 69 72 76 74 70 71 74 73 66 61 64 70 66 63 68 71 65 56 55 63 69 63 53 51 55 61 65 63 57 56 60 61 58 55 59 68 70
42 42 40 37 37 37 36 35 35 35 35 34 34 39 46 47 48 50 50 49 49 51 51 51 50 49 47 44 40 37 37 38 40 41 41 41 42 43 44 46 49 52 55 59 62 65 66 66 68 70 72 76 81 78 72 74 77 72 64 63 64 64 62 62 65 63 59 55 57 62 65 61 56 56 59 63 65 63 59 59 60 60 58 54 56 63 66
44 44 41 38 36 35 34 35 36 37 36 38 44 47 47 48 54 56 54 52 53 53 52 52 49 46 44 42 38 37 39 42 43 43 42 43 45 48 50 52 53 57 61 64 65 67 69 69 69 73 76 80 83 79 75 78 76 62 53 57 61 60 60 63 64 63 60 57 58 59 59 58 59 60 61 63 63 60 58 59 61 61 58 55 57 64 63
47 46 41 39 37 35 35 36 38 38 39 44 52 54 51 53 59 57 51 51 52 49 49 51 49 43 41 42 40 39 41 44 45 45 46 48 50 52 55 57 58 60 63 67 69 71 72 73 73 73 75 81 84 83 83 87 80 59 50 56 61 60 59 60 61 63 63 60 59 59 58 57 59 60 59 60 61 60 57 56 56 56 55 56 60 64 60
49 46 41 38 37 37 38 39 39 40 44 49 53 54 55 55 55 51 47 47 47 47 51 53 50 45 42 41 41 41 42 45 46 47 49 51 54 55 55 54 56 57 58 62 67 68 68 69 69 68 70 77 82 83 85 87 76 57 51 58 61 59 60 62 62 63 64 64 64 62 61 62 62 60 57 60 64 66 63 58 55 53 52 54 59 62 59
48 45 41 40 41 42 43 44 43 44 48 52 53 56 59 58 54 52 51 50 49 52 55 54 52 49 44 40 42 45 45 45 48 48 48 49 50 51 49 49 50 51 52 57 63 64 61 63 66 67 67 71 77 79 78 72 63 55 56 61 61 60 62 63 61 60 62 66 66 64 65 69 67 60 57 63 67 66 63 60 59 56 54 56 60 61 59
47 46 43 43 46 47 48 50 49 49 53 58 59 61 60 56 53 52 53 54 54 55 55 54 55 54 49 44 47 50 49 47 48 49 47 46 46 46 46 46 47 48 50 56 60 60 59 59 63 66 66 69 76 80 75 64 58 59 61 61 62 63 64 63 63 64 67 68 67 65 66 68 65 60 61 68 69 64 60 60 60 58 58 60 60 60 64
48 50 48 46 48 50 50 52 53 55 60 63 64 62 57 52 50 52 52 54 56 56 55 55 56 57 57 55 55 56 52 48 46 45 45 44 44 44 44 45 46 48 51 55 56 56 57 59 60 62 63 64 69 73 67 60 60 64 64 63 65 66 64 63 66 70 70 68 67 70 72 69 64 64 68 71 70 65 61 61 61 60 59 59 59 61 71
49 52 51 49 49 49 51 55 58 60 61 60 58 55 51 49 51 54 54 54 56 56 55 55 57 59 61 62 61 59 56 50 45 42 42 44 45 45 45 48 50 50 49 50 51 52 55 57 59 61 64 66 68 67 64 63 66 68 69 70 70 69 66 65 65 67 67 68 71 74 72 68 67 70 72 73 74 73 68 64 62 62 60 60 62 67 76
52 55 54 51 48 49 55 61 63 61 58 54 50 49 49 51 56 59 58 56 56 54 54 57 59 58 60 63 63 58 55 51 46 43 43 46 48 46 44 47 51 49 47 49 52 54 54 56 58 64 70 73 74 74 75 77 78 78 78 78 75 70 66 64 63 63 67 71 74 73 69 68 73 77 76 75 77 76 72 66 62 61 62 63 64 68 75
54 58 58 54 51 52 58 63 62 58 55 52 50 52 54 56 57 59 59 58 56 54 56 60 61 58 58 61 59 53 51 50 49 46 47 50 50 46 44 47 51 51 50 52 54 55 58 63 66 69 72 73 74 79 84 87 88 86 83 79 74 71 68 66 67 71 77 79 79 78 75 75 78 78 76 75 74 72 71 68 64 62 64 66 65 67 72
57 58 58 57 56 57 58 59 58 56 54 53 54 56 57 56 56 57 57 57 55 56 60 61 59 56 57 58 54 50 48 51 53 54 53 52 50 49 50 51 53 54 55 56 56 60 69 76 76 74 75 79 82 85 86 86 88 89 86 80 77 80 83 82 80 83 87 86 84 83 82 80 78 75 73 71 68 67 68 68 63 62 67 70 71 72 71
60 61 61 62 62 60 59 57 57 58 58 56 56 57 56 56 56 56 55 53 53 56 59 59 55 51 53 56 56 53 51 54 59 60 55 51 50 53 55 54 53 54 56 59 60 65 76 80 76 74 80 85 87 85 83 82 85 91 94 92 90 92 94 92 90 89 89 87 84 81 78 75 73 72 70 68 67 68 68 66 65 69 74 77 77 75 73
64 66 67 66 64 62 60 60 61 63 63 60 58 57 55 54 52 50 49 52 54 54 55 56 53 51 51 52 53 53 54 55 55 54 53 53 54 54 54 54 53 54 59 63 64 68 77 81 79 81 87 90 86 83 84 85 87 92 97 99 98 96 95 96 95 91 87 84 80 76 74 73 73 72 71 69 68 68 67 67 70 75 78 79 78 76 77
67 70 70 68 65 63 63 65 66 66 64 60 57 56 52 49 48 47 48 52 53 53 53 54 54 51 49 50 51 54 56 55 53 54 58 59 56 53 53 55 56 60 66 68 69 74 83 88 88 89 93 92 86 84 87 91 94 97 99 99 97 95 95 95 93 88 83 81 78 76 75 75 74 73 71 72 70 68 70 76 81 81 79 79 80 80 81
67 69 70 71 68 66 66 67 66 64 62 59 57 55 51 49 49 50 51 53 56 57 57 56 54 52 52 54 54 54 56 57 57 59 61 61 57 56 59 61 63 67 71 73 76 83 91 94 93 90 91 89 87 87 91 94 97 98 99 99 98 96 95 92 89 86 84 85 84 80 76 76 77 77 77 78 77 74 76 82 87 86 82 82 84 84 84
71 70 69 69 66 64 65 65 63 59 59 58 56 55 55 55 56 58 59 61 61 59 56 54 54 55 57 57 55 53 55 58 59 60 63 65 64 61 61 63 66 69 73 78 83 87 91 94 92 89 89 90 91 92 95 96 97 98 100 100 99 98 95 90 87 86 86 87 86 83 81 82 85 84 84 84 85 86 87 87 87 87 88 89 89 89 89
76 73 70 67 65 63 65 64 59 55 56 57 56 56 58 61 62 63 62 58 54 52 52 54 55 57 59 58 55 54 57 59 59 61 66 70 67 61 60 63 68 73 79 85 88 89 91 94 94 91 91 94 95 95 97 98 98 99 101 100 98 97 94 89 87 87 87 88 90 90 91 92 93 91 90 90 90 92 93 91 87 88 91 93 93 94 94
79 74 69 67 66 66 65 63 58 55 56 56 55 56 59 62 61 58 55 50 47 48 51 54 56 60 60 57 54 54 57 60 63 65 65 65 63 60 59 63 71 79 86 90 90 89 91 93 93 93 95 98 98 98 99 100 99 100 100 98 96 95 91 87 85 86 87 90 94 94 94 97 98 97 96 95 93 93 94 93 89 88 90 91 92 94 95
79 73 68 68 68 65 62 61 60 60 59 58 55 55 58 60 57 52 50 49 49 48 50 54 60 63 60 56 56 59 59 60 62 62 60 59 61 60 60 64 74 83 88 90 90 89 90 91 92 94 96 99 100 99 100 100 100 100 99 97 94 91 87 84 83 85 88 92 96 96 96 98 100 99 98 98 97 96 97 95 93 93 95 95 94 94 93
79 75 71 70 68 66 62 60 59 59 60 59 56 55 58 60 57 53 54 54 52 50 53 58 61 61 58 59 64 64 60 56 57 58 57 58 60 60 62 69 77 82 84 88 91 89 87 89 92 93 96 99 100 100 99 100 99 99 98 96 91 86 81 78 78 80 83 87 92 96 97 98 98 97 97 98 98 98 98 97 96 96 95 95 94 94 94
80 77 74 71 69 66 63 59 57 58 60 59 56 56 59 59 57 56 58 57 55 54 56 58 59 60 64 68 68 63 58 56 57 56 56 57 59 61 67 75 81 81 83 87 88 85 85 89 91 91 94 99 100 99 99 99 99 99 97 92 85 81 77 72 69 68 70 74 80 87 92 95 96 97 97 97 97 97 96 96 95 95 95 95 95 95 94
80 76 74 74 72 68 65 61 60 62 63 60 57 57 58 57 55 55 56 55 52 52 55 58 61 65 69 71 67 63 60 60 59 57 56 58 60 64 72 80 82 82 84 87 84 80 81 84 85 87 93 98 100 98 97 97 96 95 91 85 80 79 75 67 58 54 54 56 61 68 74 79 85 90 93 95 97 97 96 95 94 94 94 94 94 94 95
79 76 75 74 72 68 64 62 62 63 62 59 55 53 51 49 49 51 54 52 50 52 56 60 64 68 71 73 71 65 60 56 55 57 57 56 58 66 76 82 81 79 80 80 78 77 79 81 81 84 91 97 98 97 96 95 93 89 84 81 79 78 73 65 57 51 46 44 45 48 52 56 61 66 71 78 84 88 91 93 93 94 94 93 92 93 92
78 77 76 74 71 67 64 62 62 63 63 60 56 52 49 48 49 52 53 52 53 55 58 60 64 69 73 74 70 64 57 54 55 57 57 57 61 71 79 81 79 77 76 74 74 77 81 81 82 85 91 95 94 93 92 92 90 88 84 81 79 77 73 68 62 55 48 44 42 40 40 42 44 44 47 50 55 59 65 71 76 79 82 84 86 86 86